FENGYUN 2G

Last updated on Mon Feb 16 2026 00:02:22 GMT+0000 (Coordinated Universal Time)

1 40367U 14090A 26046.62590473 -.00000297 00000+0 00000+0 0 9995 2 40367 5.3298 74.3039 0001786 145.7749 250.1615 1.00282523 40786
UTC large
Height (km)
Speed (km/s)
/
Latitude / Longitude
Inclination (degrees)
Orbital Period (minutes)
Azimuth
Elevation
Range (km)
Doppler Factor

Next 0 passes for location: London (51.5072 / 0.1276)

Sorry there are no passes over London.